Location: Unspecified
(0.0000°N, 0.0000°E)
Time: 14:53:40
(UTC+00:00)

Hubble Space Telescope - Pass Details

Date: 30 April 2017
Orbit: 538 x 541 km, 28.5° (Epoch: 26 July)

Event Time Altitude Azimuth Distance (km) Brightness Sun altitude
Rises 19:14:20 0° 290° (WNW) 2,676 6.0 -18.6°
Reaches altitude 10° 19:16:39 10° 284° (WNW) 1,787 4.7 -19.2°
Maximum altitude 19:20:38 46° 210° (SSW) 721 1.4 -20.1°
Enters shadow 19:21:40 38° 169° (SSE) 835 1.5 -20.4°
